Flag for Australia Weather past 2 weeks in Geelong, Victoria, Australia

Now
59 °F

Cool.


Feels Like: 56 °F
Forecast: 42 / 60 °F
Wind: 14 mph from South

Location: Geelong Airport Aws

Current Time: Sep 20, 2014 at 4:52:38 PM

Latest Report: Sep 20, 2014 at 3:00 PM


Visibility: N/A

Pressure: 30.35 "Hg

Humidity: 60%

Dew point: 45 °F

Location of GeelongLocation

Historic Weather in Geelong — Graph

°F

Geelong temperature yesterday

Maximum temperature yesterday: 58 °F (at 3:00 PM)
Minimum temperature yesterday: 44 °F (at 5:00 AM)
Average temperature yesterday: 51 °F

Past Weeks' High & Low Weather Summary

 TemperatureHumidityPressure
High69 °F (Sep 8, 12:00 PM)96% (Sep 7, 2:00 AM)30.44 "Hg (Sep 7, 2:00 AM)
Low39 °F (Sep 6, 6:00 AM)40% (Sep 7, 3:00 PM)29.57 "Hg (Sep 9, 3:00 PM)
Average53 °F78%30.09 "Hg
* Reported Sep 5 3:00 PM — Sep 20 3:00 PM, Geelong, Weather by CustomWeather, © 2014

Note: Actual official high and low records may vary slightly from our data, if they occured in-between our weather recording intervals... More about our weather records

Advertising

Geelong weather history for previous 24 hours

 ConditionsComfort  
Time TempWeatherWind HumidityBarometerVisibility
3:00 PM
Sep 20
59 °FCool.14 mph60%30.35 "HgN/A
2:00 PM59 °FCool.13 mph62%30.35 "HgN/A
12:00 PM58 °FCool.13 mph66%30.36 "HgN/A
11:00 AM57 °FCool.12 mph61%30.37 "HgN/A
9:00 AM55 °FCool.7 mph73%30.37 "HgN/A
8:00 AM53 °FCool.3 mph82%30.35 "HgN/A
6:00 AM49 °FCool.No wind85%30.31 "HgN/A
5:00 AM49 °FCool.3 mph87%30.29 "HgN/A
3:00 AM49 °FCool.5 mph87%30.28 "HgN/A
2:00 AM50 °FCool.5 mph79%30.29 "HgN/A
12:00 AM51 °FCool.5 mph79%30.29 "HgN/A
11:00 PM
Sep 19
51 °FCool.5 mph76%30.29 "HgN/A
9:00 PM52 °FCool.7 mph73%30.30 "HgN/A
8:00 PM52 °FCool.6 mph75%30.29 "HgN/A
6:00 PM54 °FCool.9 mph72%30.26 "HgN/A
5:00 PM55 °FCool.12 mph69%30.25 "HgN/A
Weather by CustomWeather, © 2014

See weather overviewHow to use our weather pages